Live-Position
3D-Globus wird geladen...
Über OneWeb SL0421
Group: 3 satellites
Beschreibung wird geladen...
Nächste Überflüge
Passes for default location (London). Set your location on the main map for personalized predictions.
Höhenverlauf
Loading altitude history...
No altitude history available
Zweizeiliger Elementsatz
1 50496U 21132AD 26106.93314652 .00000056 00000-0 10960-3 0 9991
2 50496 87.9219 347.6382 0001880 92.9555 267.1793 13.18685074213540
Epoch: 16. Apr. 2026 •
Age: 13 hours
Aktueller Status
Höhe 1202.2 km
Geschwindigkeit 7.26 km/s
Subsatellitenpunkt 86.61°N,
5.66°E
Startdatum 27. Dez. 2021
Alter 4.3 years
Typ internet
Startgruppe
Unknown Vehicle •
OneWeb Launch 12 •
36 satellites
OneWeb SL0389
50469
OneWeb SL0390 50470
OneWeb SL0391 50471
OneWeb SL0392 50472
OneWeb SL0393 50473
OneWeb SL0394 50474
OneWeb SL0395 50475
OneWeb SL0396 50476
OneWeb SL0397 50477
OneWeb SL0398 50478
OneWeb SL0399 50479
OneWeb SL0400 50480
OneWeb SL0401 50481
OneWeb SL0402 50482
OneWeb SL0403 50483
OneWeb SL0404 50484
OneWeb SL0405 50485
OneWeb SL0406 50486
OneWeb SL0407 50487
OneWeb SL0409 50488
...and 15 more
Technische Details
Klassifizierung Payload
Masse 148.00 kg
Trockenmasse 140.00 kg
Gesamtmasse 148.00 kg
Länge 1.30 m
Durchmesser 1.00 m
Spannweite 5.00 m
Form Trapezoid+2 pan
Hersteller ONEWUS
Bus-Typ ARROW
Phasenstatus In Orbit
Besitzer/Staat ONEWEBN/UK
Most Searched
Loading...